Terminal Aerodrome Forecast
Issued by NWS

Home | Current Version | Previous Version | Text Only | Print | Product List | Glossary On
Versions: 1 2 3 4 5 6 7 8 9 10 11 12 13 14
000
FTPA31 PHFO 261138
TAFHLI
TAF
PHLI 261138Z 2612/2712 06008KT P6SM VCSH SCT025
      TEMPO 2612/2616 -SHRA BKN025
     FM262000 12010KT P6SM SCT025
     FM270500 06005KT P6SM VCSH SCT025=

USA.gov is the U.S. government's official web portal to all federal, state and local government web resources and services.